Preview of NWS' New Version of Forecast
This preview is not operational and should not be used for support decisions.

Terminal Aerodrome Forecast (TAF)

Issued by National Weather Service (NWS)

                            
000
FTUS42 KCAE 131737 CCA
TAFOGB
TAF COR
KOGB 131737Z 1318/1418 10006KT P6SM SCT060
     FM140800 VRB02KT P6SM BKN015
     FM141000 05004KT P6SM OVC007
     FM141500 05008KT P6SM BKN025=